Location: Cincinnati Observatory Center
(39.1389°N, 84.4225°W)
Time: 04:25:06
(UTC-04:00)

Amateur Radio Satellites - All Passes

Search period start: 02 October 2014 03:55
Search period end: 03 October 2014 03:55
Location: Cincinnati Observatory Center, 39.1389°N, 84.4225°W

Satellite Date Start Highest point End Downlink Frequencies (MHz)
Time Altitude Azimuth
Oscar 16 02 Oct 04:08:12 04:12:43 32° 292° (WNW) 04:17:13 437.025 USB, Beacon 2401.1428
AO-Echo 02 Oct 04:09:20 04:14:17 60° 286° (WNW) 04:19:23 ?
AO-27 02 Oct 04:19:04 04:24:14 61° 287° (WNW) 04:29:22 436.795 MHz FM
ISS 02 Oct 04:45:14 04:48:23 38° 32° (NNE) 04:51:31 145.800 FM
OPAL 02 Oct 04:48:10 04:52:39 30° 65° (ENE) 04:57:09 ?
RS-15 02 Oct 04:48:38 04:58:58 45° 314° (NW) 05:09:20 29.354 - 29.394 USB, Beacon 29.352 USB
Gurwin Techsat 1B 02 Oct 04:49:20 04:54:36 65° 286° (WNW) 04:59:51 435.225 FM
SO-50 02 Oct 05:11:04 05:15:54 72° 241° (WSW) 05:20:45 436.795 FM
MaSat-1 02 Oct 05:13:29 05:16:57 20° 105° (ESE) 05:20:21 437.345 MHz
TMSAT-1 02 Oct 05:17:28 05:22:34 49° 289° (WNW) 05:27:38 436.925 FM
ITAMSAT 1 02 Oct 05:21:04 05:24:28 18° 297° (WNW) 05:27:53 435.822 SSB
Uribyol 2 02 Oct 05:21:51 05:25:03 17° 298° (WNW) 05:28:15 436.500 FM
Uosat F 02 Oct 05:31:52 05:36:32 37° 98° (E) 05:41:10 435.120 FM
UOSAT-12 02 Oct 05:33:52 05:37:30 22° 46° (NE) 05:41:06 437.025 FM, 437.400 FM
AO-7 02 Oct 05:42:44 05:50:52 57° 103° (ESE) 05:58:58 29.400 - 29.500 MHz
JAS-1B 02 Oct 05:43:47 05:45:45 12° 301° (WNW) 05:47:46 435.800 - 435.900 CW/SSB
ISS 02 Oct 06:22:17 06:24:54 22° 228° (SW) 06:27:31 145.800 FM
OPAL 02 Oct 06:26:45 06:31:24 33° 261° (W) 06:36:06 ?
MaSat-1 02 Oct 06:48:29 06:53:08 45° 299° (WNW) 06:57:33 437.345 MHz
JAS-2 02 Oct 06:59:30 07:06:10 54° 100° (E) 07:13:31 435.800 - 435.900 CW/SSB, 435.910 FM
RS-15 02 Oct 07:08:16 07:15:18 18° 347° (NNW) 07:22:25 29.354 - 29.394 USB, Beacon 29.352 USB
Uosat F 02 Oct 07:11:04 07:15:06 25° 294° (WNW) 07:19:08 435.120 FM
UOSAT-12 02 Oct 07:13:22 07:17:55 49° 244° (WSW) 07:22:22 437.025 FM, 437.400 FM
Hamsat 02 Oct 07:15:48 07:19:55 54° 100° (E) 07:23:59 145.90 MHz
STRAND 1 02 Oct 07:29:36 07:34:40 72° 74° (ENE) 07:39:46 ?
AO-7 02 Oct 07:36:09 07:43:13 33° 301° (WNW) 07:50:19 29.400 - 29.500 MHz
SO-67 02 Oct 08:39:53 08:43:21 71° 101° (ESE) 08:46:46 435.3500 MHz FM
JAS-2 02 Oct 08:45:16 08:50:54 29° 294° (WNW) 08:57:01 435.800 - 435.900 CW/SSB, 435.910 FM
Hamsat 02 Oct 08:53:37 08:55:23 12° 296° (WNW) 08:57:08 145.90 MHz
PCSat 02 Oct 08:55:44 08:59:18 18° 105° (ESE) 09:02:52 145.825 MHz
STRAND 1 02 Oct 09:12:23 09:14:21 12° 270° (W) 09:16:20 ?
RS-15 02 Oct 09:25:27 09:33:34 22° 24° (NNE) 09:41:49 29.354 - 29.394 USB, Beacon 29.352 USB
UKube-1 02 Oct 10:09:39 10:11:55 14° 92° (E) 10:14:10 145.840 MHz, 145.915 MHz
Sapphire 02 Oct 10:11:17 10:16:41 80° 116° (ESE) 10:22:07 437.095 MHz 1200 baud AX-25 AFSK
HO-68 02 Oct 10:35:16 10:42:26 67° 103° (ESE) 10:49:34 435.675 MHz FM
PCSat 02 Oct 10:36:52 10:42:11 58° 301° (WNW) 10:47:33 145.825 MHz
ZACube-1 02 Oct 10:51:54 10:54:19 14° 91° (E) 10:56:42 437.345 MHz
Oscar 11 02 Oct 11:13:18 11:17:35 60° 101° (E) 11:21:50 145.825 FM, Beacon 2401.500 USB
RS-15 02 Oct 11:37:49 11:48:50 62° 53° (NE) 12:00:16 29.354 - 29.394 USB, Beacon 29.352 USB
FUNcube-1 02 Oct 11:41:04 11:45:29 50° 99° (E) 11:49:46 145.950 - 145.970 MHz USB
UKube-1 02 Oct 11:44:08 11:48:21 49° 288° (WNW) 11:52:33 145.840 MHz, 145.915 MHz
Sapphire 02 Oct 11:57:21 12:00:46 17° 315° (NW) 12:04:12 437.095 MHz 1200 baud AX-25 AFSK
HO-68 02 Oct 12:24:04 12:29:31 24° 301° (WNW) 12:34:59 435.675 MHz FM
PCSat 02 Oct 12:25:55 12:26:48 10° 322° (NW) 12:27:41 145.825 MHz
ZACube-1 02 Oct 12:26:37 12:31:01 50° 287° (WNW) 12:35:18 437.345 MHz
JAS-1B 02 Oct 12:49:37 12:51:03 11° 57° (ENE) 12:52:27 435.800 - 435.900 CW/SSB
Oscar 11 02 Oct 12:51:33 12:53:14 12° 297° (WNW) 12:54:54 145.825 FM, Beacon 2401.500 USB
Oscar 19 02 Oct 13:05:24 13:08:31 16° 63° (ENE) 13:11:39 437.125 CW, 437.150 USB
FUNcube-1 02 Oct 13:18:46 13:21:24 16° 296° (WNW) 13:24:01 145.950 - 145.970 MHz USB
Uribyol 2 02 Oct 13:23:34 13:24:15 10° 58° (ENE) 13:24:56 436.500 FM
Oscar 16 02 Oct 13:44:43 13:49:30 39° 70° (ENE) 13:54:18 437.025 USB, Beacon 2401.1428
AO-Echo 02 Oct 13:44:53 13:47:49 17° 64° (ENE) 13:50:46 ?
RS-15 02 Oct 13:50:47 14:00:40 38° 253° (WSW) 14:10:57 29.354 - 29.394 USB, Beacon 29.352 USB
AO-27 02 Oct 13:58:15 14:02:09 22° 65° (ENE) 14:06:04 436.795 MHz FM
Saudisat 1A 02 Oct 14:08:23 14:12:30 41° 116° (ESE) 14:16:38 436.775 MHz
Gurwin Techsat 1B 02 Oct 14:31:05 14:35:03 22° 65° (ENE) 14:39:01 435.225 FM
JAS-1B 02 Oct 14:33:16 14:40:52 70° 73° (ENE) 14:47:14 435.800 - 435.900 CW/SSB
Oscar 19 02 Oct 14:42:11 14:47:19 62° 259° (WSW) 14:52:29 437.125 CW, 437.150 USB
AO-7 02 Oct 14:53:00 14:57:08 15° 48° (NE) 15:01:16 29.400 - 29.500 MHz
ITAMSAT 1 02 Oct 14:57:13 15:02:22 77° 75° (ENE) 15:07:34 435.822 SSB
Uribyol 2 02 Oct 14:57:40 15:02:51 83° 75° (ENE) 15:08:05 436.500 FM
TMSAT-1 02 Oct 14:58:11 15:02:38 28° 67° (ENE) 15:07:06 436.925 FM
MaSat-1 02 Oct 15:05:16 15:07:45 19° 54° (NE) 15:09:59 437.345 MHz
AO-Echo 02 Oct 15:21:39 15:26:10 49° 260° (W) 15:30:46 ?
Oscar 16 02 Oct 15:24:46 15:28:56 24° 265° (W) 15:33:07 437.025 USB, Beacon 2401.1428
AO-27 02 Oct 15:36:25 15:41:20 44° 261° (W) 15:46:18 436.795 MHz FM
Saudisat 1A 02 Oct 15:48:46 15:52:13 22° 313° (NW) 15:55:41 436.775 MHz
Gurwin Techsat 1B 02 Oct 16:09:36 16:14:40 46° 261° (W) 16:19:47 435.225 FM
KITSAT 1 02 Oct 16:23:43 16:29:54 25° 104° (ESE) 16:36:04 435.175 FM
JAS-1B 02 Oct 16:26:45 16:31:44 19° 266° (W) 16:36:16 435.800 - 435.900 CW/SSB
TMSAT-1 02 Oct 16:37:37 16:42:24 35° 263° (W) 16:47:13 436.925 FM
AO-7 02 Oct 16:40:13 16:48:25 68° 68° (ENE) 16:56:37 29.400 - 29.500 MHz
ITAMSAT 1 02 Oct 16:40:45 16:42:25 11° 270° (W) 16:44:04 435.822 SSB
MaSat-1 02 Oct 16:41:58 16:43:56 16° 257° (WSW) 16:45:45 437.345 MHz
Uribyol 2 02 Oct 16:41:59 16:42:56 10° 271° (W) 16:43:53 436.500 FM
Uosat F 02 Oct 16:44:02 16:48:47 46° 71° (ENE) 16:53:33 435.120 FM
Oscar 10/S400 02 Oct 17:00:53 17:18:41 49° 156° (SSE) 17:53:10 145.825 - 145.975 CW/USB, Beacon 145.810 USB
JAS-2 02 Oct 17:14:11 17:17:13 16° 60° (ENE) 17:20:21 435.800 - 435.900 CW/SSB, 435.910 FM
PCSat 02 Oct 17:44:04 17:47:04 15° 43° (NE) 17:50:03 145.825 MHz
Hamsat 02 Oct 18:07:59 18:11:53 34° 71° (ENE) 18:15:46 145.90 MHz
KITSAT 1 02 Oct 18:16:31 18:24:33 69° 302° (WNW) 18:32:39 435.175 FM
Uosat F 02 Oct 18:24:16 18:27:46 19° 267° (W) 18:31:18 435.120 FM
AO-7 02 Oct 18:35:19 18:41:45 25° 266° (W) 18:48:13 29.400 - 29.500 MHz
OPAL 02 Oct 18:37:13 18:42:19 72° 105° (ESE) 18:47:18 ?
JAS-2 02 Oct 18:56:36 19:01:42 61° 259° (W) 19:07:05 435.800 - 435.900 CW/SSB, 435.910 FM
Sapphire 02 Oct 19:00:29 19:05:46 50° 57° (ENE) 19:11:01 437.095 MHz 1200 baud AX-25 AFSK
SO-67 02 Oct 19:12:22 19:14:51 19° 70° (ENE) 19:17:21 435.3500 MHz FM
SO-50 02 Oct 19:25:02 19:29:19 48° 116° (ESE) 19:33:43 436.795 FM
PCSat 02 Oct 19:25:49 19:31:17 87° 62° (ENE) 19:36:42 145.825 MHz
STRAND 1 02 Oct 19:41:53 19:46:12 26° 96° (E) 19:50:29 ?
Hamsat 02 Oct 19:44:46 19:47:54 19° 266° (W) 19:51:01 145.90 MHz
KITSAT 1 02 Oct 20:16:10 20:21:33 19° 325° (NW) 20:26:58 435.175 FM
OPAL 02 Oct 20:17:58 20:20:32 14° 301° (WNW) 20:23:06 ?
Sapphire 02 Oct 20:44:47 20:48:48 21° 254° (WSW) 20:52:48 437.095 MHz 1200 baud AX-25 AFSK
SO-67 02 Oct 20:45:03 20:47:44 21° 265° (W) 20:50:25 435.3500 MHz FM
PANSAT 02 Oct 20:48:46 20:51:11 16° 175° (S) 20:53:36 not established
HO-68 02 Oct 21:02:35 21:09:15 44° 66° (ENE) 21:15:56 435.675 MHz FM
UKube-1 02 Oct 21:05:26 21:06:52 12° 62° (ENE) 21:08:18 145.840 MHz, 145.915 MHz
SO-50 02 Oct 21:06:43 21:10:08 21° 315° (NW) 21:13:37 436.795 FM
PCSat 02 Oct 21:12:27 21:13:52 11° 258° (WSW) 21:15:16 145.825 MHz
STRAND 1 02 Oct 21:20:45 21:25:24 35° 291° (WNW) 21:30:02 ?
UOSAT-12 02 Oct 21:23:01 21:27:34 66° 118° (ESE) 21:32:14 437.025 FM, 437.400 FM
ISS 02 Oct 21:27:05 21:29:40 21° 132° (SE) 21:32:16 145.800 FM
ZACube-1 02 Oct 21:48:37 21:50:07 12° 62° (ENE) 21:51:37 437.345 MHz
Oscar 11 02 Oct 22:07:10 22:11:15 41° 72° (ENE) 22:15:21 145.825 FM, Beacon 2401.500 USB
PANSAT 02 Oct 22:28:26 22:30:41 15° 188° (S) 22:32:56 not established
FUNcube-1 02 Oct 22:36:10 22:40:18 36° 71° (ENE) 22:44:31 145.950 - 145.970 MHz USB
Saudisat 1A 02 Oct 22:36:12 22:39:56 26° 49° (NE) 22:43:39 436.775 MHz
UKube-1 02 Oct 22:38:11 22:42:29 65° 258° (WSW) 22:46:49 145.840 MHz, 145.915 MHz
HO-68 02 Oct 22:50:42 22:57:01 34° 263° (W) 23:03:24 435.675 MHz FM
ISS 02 Oct 23:03:02 23:06:11 39° 328° (NNW) 23:09:21 145.800 FM
UOSAT-12 02 Oct 23:05:04 23:08:11 17° 317° (NW) 23:11:20 437.025 FM, 437.400 FM
ZACube-1 02 Oct 23:21:19 23:25:51 73° 259° (WSW) 23:30:29 437.345 MHz
Oscar 11 02 Oct 23:44:49 23:47:35 17° 267° (W) 23:50:22 145.825 FM, Beacon 2401.500 USB
FUNcube-1 03 Oct 00:13:20 00:16:46 21° 267° (W) 00:20:14 145.950 - 145.970 MHz USB
Saudisat 1A 03 Oct 00:15:34 00:19:32 33° 246° (WSW) 00:23:29 436.775 MHz
KITSAT 1 03 Oct 00:17:08 00:21:12 14° 28° (NNE) 00:25:15 435.175 FM
ISS 03 Oct 00:42:10 00:43:36 12° 347° (NNW) 00:45:02 145.800 FM
Oscar 16 03 Oct 01:59:01 02:01:46 14° 91° (E) 02:04:30 437.025 USB, Beacon 2401.1428
RS-15 03 Oct 02:00:39 02:10:40 42° 108° (ESE) 02:20:31 29.354 - 29.394 USB, Beacon 29.352 USB
KITSAT 1 03 Oct 02:11:03 02:18:51 49° 53° (NE) 02:26:36 435.175 FM
JAS-1B 03 Oct 02:20:22 02:23:42 15° 93° (E) 02:27:11 435.800 - 435.900 CW/SSB
ISS 03 Oct 02:20:51 02:21:30 10° 8° (N) 02:22:09 145.800 FM
Oscar 19 03 Oct 02:55:00 03:00:01 51° 100° (E) 03:04:58 437.125 CW, 437.150 USB
ITAMSAT 1 03 Oct 03:11:40 03:16:15 30° 96° (E) 03:20:47 435.822 SSB
Uribyol 2 03 Oct 03:11:57 03:16:38 32° 97° (E) 03:21:16 436.500 FM
TMSAT-1 03 Oct 03:17:07 03:18:46 11° 89° (E) 03:20:25 436.925 FM
AO-Echo 03 Oct 03:29:13 03:34:13 57° 101° (E) 03:39:19 ?
Oscar 16 03 Oct 03:36:26 03:41:32 62° 287° (WNW) 03:46:34 437.025 USB, Beacon 2401.1428
